FlightSource - Aviation Photo Database

World Wide Airport Lookup


Search by ICAO
Or
Search by City

FlightSource.ca - Aviation Photo Database - Buffalo Niagara International Airport Information
Airport Identification
Name: Buffalo Niagara International Airport
ICAO: KBUF
IATA: BUF
Airport Location
City: Buffalo
Region: NY
Country: United States
Continent: North America
Latitude: 42.9405
Longitude: -78.7322
Airport Information
Type: Large Airport
Elevation: 724 Feet ASL
Flight Status: KBUF
More Info: KBUF
Airport Weather    
Metar: KBUF 260854Z 05009KT 10SM BKN055 BKN085 OVC140 02/01 A3021 RMK AO2 SLP236 60005 T00220006 56022 $
TAF:


Advertisement